Regional Weather Roundup
Issued by NWS

Home | Current Version | Previous Version | Graphics & Text | Print | Product List | Glossary On
Versions: 1 2 3 4 5 6 7 8 9 10 11 12 13 14 15 16 17 18 19 20 21 22 23 24 25 26 27 28 29 30 31 32 33 34 35 36 37 38 39 40 41 42 43 44 45 46 47 48 49 50
000
ASUS43 KLMK 310802
RWRKY
KENTUCKY REGIONAL WEATHER ROUNDUP
NATIONAL WEATHER SERVICE LOUISVILLE KY
400 AM EDT FRI OCT 31 2014

NOTE "FAIR" INDICATES FEW OR NO CLOUDS BELOW 12,000 FEET
WITH NO SIGNIFICANT WEATHER AND/OR OBSTRUCTIONS TO VISIBILITY.

KYZ001>023-026-027-061>063-070>075-310900-
WESTERN AND SOUTH CENTRAL KENTUCKY

CITY           SKY/WX    TMP DP  RH WIND       PRES   REMARKS
PADUCAH        CLOUDY    52  50  93 CALM      30.00F
HENDERSON      CLOUDY    52  43  71 NE5       30.01S
OWENSBORO      MOCLDY    51  43  74 NE5       30.01F
HOPKINSVILLE   DRIZZLE   50  49  99 SW3       30.00S
BOWLING GREEN  CLOUDY    48  43  82 CALM      30.00F
GLASGOW        LGT RAIN  46  46 100 CALM      30.00F
$$

KYZ024-025-028>034-038-045-046-053-310900-
NORTH CENTRAL KENTUCKY

CITY           SKY/WX    TMP DP  RH WIND       PRES   REMARKS
LOUISVILLE/SDF LGT RAIN  48  41  76 SE7       30.01F
LOUISVILLE/LOU LGT RAIN  48  40  73 CALM      30.02F
FORT KNOX      CLOUDY    46  42  84 S1        30.00S
$$

KYZ035>037-039>044-047>052-055>060-089>105-310900-
NORTHEAST KENTUCKY

CITY           SKY/WX    TMP DP  RH WIND       PRES   REMARKS
LEXINGTON      CLOUDY    46  40  79 CALM      30.01F
COVINGTON      LGT RAIN  44  40  85 CALM      30.01F
FRANKFORT      LGT RAIN  43  40  89 CALM      30.00F
$$

KYZ054-064>069-076>088-106>120-310900-
SOUTHEAST KENTUCKY

CITY           SKY/WX    TMP DP  RH WIND       PRES   REMARKS
JACKSON        CLOUDY    40  33  76 CALM      30.00F
LONDON         CLOUDY    40  36  86 CALM      30.00F
SOMERSET       CLOUDY    39  39 100 CALM      30.02F
MIDDLESBORO    CLOUDY    35  35  99 CALM      30.02S
MONTICELLO     NOT AVBL
$$




USA.gov is the U.S. government's official web portal to all federal, state and local government web resources and services.